Theta_e
298 296 296 297 298 299 299 301 301 303 302 301 301 302 304 305 303 299 300 301 301 301 301 300 300 301 301 302 303 305 303 303
298 294 295 296 298 298 300 300 301 302 303 302 301 300 303 302 304 302 301 300 301 300 300 300 300 301 301 302 302 302 303 303
296 295 295 296 297 299 301 301 301 302 305 303 301 303 302 305 305 303 305 304 303 303 301 299 299 301 303 300 300 301 301 301
296 297 296 297 299 300 301 302 302 302 302 303 304 305 306 303 306 307 306 304 305 306 304 299 298 302 303 306 303 300 301 301
297 298 297 298 298 300 300 302 302 302 302 304 304 303 305 304 303 303 302 303 304 304 300 299 298 299 301 302 305 300 300 299
298 298 297 298 299 300 301 303 302 302 302 303 304 307 306 305 304 302 301 300 299 298 298 297 297 299 301 299 301 300 300 301
298 298 298 299 300 301 302 301 301 302 303 304 305 307 306 306 305 303 301 300 300 299 298 299 297 297 299 298 299 298 300 301
299 299 299 299 300 301 300 300 301 304 305 305 305 305 303 302 303 303 307 305 301 302 302 299 301 296 297 297 298 300 300 301
300 299 298 299 301 303 300 300 301 305 306 306 306 304 303 301 298 299 300 306 302 300 300 299 296 295 293 296 296 296 299 302
300 299 299 300 302 302 300 301 304 306 306 305 304 304 303 299 292 294 295 297 298 298 298 296 296 293 294 294 294 295 298 297
301 299 300 301 302 302 301 303 304 305 303 303 303 306 306 302 292 290 291 291 293 293 291 290 288 289 290 294 294 294 296 297
301 301 301 301 303 304 303 304 306 304 303 303 306 306 306 304 299 290 288 287 286 287 290 288 286 286 288 289 291 292 295 297
301 301 301 301 303 304 305 306 306 304 303 303 304 305 306 304 300 295 290 288 287 285 284 286 286 287 289 290 290 291 292 293
301 301 301 302 303 304 305 306 306 305 302 302 301 305 306 305 300 296 293 292 292 291 290 288 289 291 291 291 291 292 292 293
301 302 303 303 303 304 305 306 305 303 301 302 302 304 302 301 300 296 294 294 293 292 291 291 291 291 291 291 292 292 291 292
303 303 304 304 304 304 306 305 305 303 303 301 302 303 303 301 300 300 296 293 294 294 292 292 292 291 291 291 292 292 291 291
303 303 304 304 304 304 306 306 304 304 303 304 307 305 302 301 299 298 298 296 294 294 292 292 293 294 292 292 292 290 289 289
301 301 303 304 303 304 305 305 305 304 303 302 300 302 301 300 298 296 296 298 297 296 294 291 292 291 291 290 290 290 289 289
304 303 304 303 304 306 306 305 304 305 304 307 300 301 300 300 298 295 295 295 295 295 293 291 288 292 291 290 290 289 289 289
303 303 304 305 306 306 306 307 305 304 304 305 306 303 302 301 298 296 295 293 295 293 292 292 286 291 291 291 290 290 290 290
Wind_Speed
2 2 3 4 5 5 5 6 6 6 5 5 6 6 5 4 5 6 6 6 6 6 6 6 6 6 6 6 6 6 6 6
2 1 3 4 5 5 6 6 6 7 6 5 6 6 5 5 5 5 5 5 5 5 5 5 5 5 5 5 5 5 4 5
3 2 3 4 5 6 6 6 6 6 6 6 6 5 5 4 4 4 4 4 3 2 4 5 5 4 3 4 5 4 4 5
5 4 2 3 4 5 5 6 6 5 6 6 5 5 5 5 4 4 3 4 4 4 4 5 5 3 8 7 4 4 4 4
4 3 2 3 4 5 5 6 5 5 5 6 6 6 5 6 5 5 5 5 4 5 5 4 4 4 8 7 5 3 3 3
4 3 3 4 4 4 5 4 4 5 5 6 6 6 5 6 6 6 4 3 4 3 3 3 3 4 7 6 6 3 3 3
4 4 3 4 5 5 4 4 5 4 5 6 6 5 7 6 6 6 4 3 3 3 2 4 5 5 8 7 3 2 3 4
4 4 2 4 4 4 3 4 4 4 5 6 5 5 5 6 5 5 3 2 2 2 3 5 6 6 11 12 7 3 4 4
5 4 4 5 5 4 2 4 4 4 4 4 5 6 6 4 4 3 4 2 2 2 3 4 5 5 6 9 10 3 2 3
5 3 5 5 4 3 1 3 5 5 5 5 6 6 5 4 5 3 4 4 2 2 3 4 4 5 6 7 7 6 5 3
2 4 4 5 4 3 3 4 5 5 5 6 5 5 3 2 2 2 2 4 3 2 2 3 5 5 4 7 8 7 4 2
3 4 3 4 4 4 5 5 3 3 4 5 5 4 5 4 2 1 0 1 1 2 2 3 4 4 4 4 5 5 5 4
3 4 4 5 4 6 5 4 3 3 4 5 5 4 5 5 4 4 3 4 4 2 2 2 2 3 4 5 6 5 3 1
3 5 5 7 5 6 6 4 3 2 4 4 4 5 4 3 3 4 7 9 6 8 7 5 3 9 11 10 10 7 1 5
5 6 6 6 5 6 6 5 3 4 4 5 4 5 4 4 3 3 4 3 6 9 9 10 11 12 11 9 7 4 10 4
6 6 5 6 6 7 7 4 4 4 4 8 4 5 5 4 4 4 4 4 3 4 2 2 7 8 8 8 5 4 4 5
6 5 6 5 6 8 6 4 5 5 4 4 4 4 4 5 3 2 3 4 4 4 3 5 4 4 1 2 7 3 1 1
5 7 7 6 6 8 6 5 4 4 5 7 6 4 5 4 2 2 3 4 4 4 3 4 3 2 0 1 1 1 2 2
7 8 7 7 8 6 6 5 5 4 3 4 6 4 4 4 3 2 3 4 4 4 5 4 5 4 4 3 3 3 3 3
6 7 7 8 7 7 6 6 5 4 4 4 3 4 4 5 3 3 3 5 4 5 4 3 5 3 4 4 4 4 4 4
Wind_Direction
218 9 332 328 323 337 334 331 326 318 338 351 354 344 349 352 348 356 7 5 13 28 34 31 22 12 19 23 33 57 61 56
155 281 321 316 320 323 330 329 329 321 333 355 358 350 337 339 338 359 11 7 25 35 34 29 22 11 15 29 52 68 63 54
226 257 316 305 321 333 341 329 323 321 355 8 352 338 335 343 360 356 6 8 15 35 49 39 30 18 6 31 40 36 47 43
234 240 287 301 321 322 332 331 331 346 5 4 347 350 355 8 7 348 21 9 6 33 59 55 34 12 2 39 74 38 31 39
216 237 248 278 300 310 323 317 317 355 359 346 339 346 340 344 339 352 6 13 30 43 51 55 33 0 360 9 34 40 28 12
237 245 262 275 287 311 318 328 333 343 342 338 337 348 344 354 4 14 15 17 33 42 28 29 6 334 338 349 345 9 351 321
219 221 234 269 291 305 317 330 332 339 351 344 347 341 342 355 8 12 11 26 36 22 2 9 16 347 353 355 23 24 21 358
215 224 241 274 288 309 325 320 327 357 344 331 342 352 357 6 355 358 352 355 37 47 18 16 15 3 350 6 14 18 22 349
222 225 236 261 287 302 299 315 326 311 325 339 357 356 339 358 340 8 353 5 55 24 27 357 7 359 349 353 355 15 341 309
211 224 250 266 268 299 315 317 296 325 351 356 346 348 357 6 14 355 11 17 36 2 357 340 335 338 332 337 334 348 337 323
243 229 261 272 255 217 252 272 310 328 347 337 335 336 309 288 350 356 20 13 8 354 360 332 322 327 325 327 332 346 344 17
230 257 239 258 260 228 227 267 300 335 334 326 319 336 319 319 229 230 52 102 358 319 321 321 315 321 326 334 334 342 356 30
207 238 236 244 259 262 253 257 267 321 312 315 312 292 312 318 288 229 217 235 179 185 244 249 283 325 289 320 296 309 315 320
221 230 238 259 224 264 278 278 272 294 312 324 311 311 305 307 311 296 227 226 235 228 222 208 281 252 292 324 335 355 291 206
223 227 242 249 245 240 266 274 280 279 275 299 306 303 301 299 299 247 260 300 246 228 234 230 224 255 302 314 339 2 35 59
221 227 233 239 243 251 249 259 275 277 281 278 276 289 285 295 280 256 225 217 242 287 306 267 254 249 264 284 1 43 10 18
221 229 242 241 246 259 258 248 255 274 282 283 293 286 306 304 303 267 223 218 225 252 315 325 302 333 177 90 67 88 113 46
195 224 234 236 237 252 266 251 230 260 269 281 278 309 316 308 274 252 251 237 226 231 240 249 288 343 32 345 40 126 133 149
222 228 224 220 236 245 248 240 231 243 253 284 305 312 286 291 264 241 278 239 222 220 226 229 219 194 212 211 221 216 187 184
249 255 238 232 232 248 240 233 233 251 256 277 298 289 315 339 304 231 211 266 226 214 233 242 202 229 210 215 223 227 209 203